EW9081 Weather Reports


time (UTC)temp
C
wind
direction
speed
KPH
gust
KPH
rain 1hr
cm
rain 24hr
cm
rain mn
cm
humidity
%
barometer
mb
20260506082504 10 251 1.6 6.4 0.00 0.00 0.00 91 1017.9
20260506082005 10 244 1.6 6.4 0.00 0.00 0.00 91 1017.9
20260506081506 10 242 1.6 4.8 0.00 0.00 0.00 90 1017.9
20260506081006 10 254 1.6 4.8 0.00 0.00 0.00 90 1017.9
20260506080502 10 234 0.0 3.2 0.00 0.00 0.00 90 1017.8
20260506073501 10 236 0.0 3.2 0.00 0.00 0.00 89 1017.6
20260506073000 10 248 0.0 3.2 0.00 0.00 0.00 89 1017.6
20260506072501 10 225 1.6 6.4 0.00 0.00 0.00 89 1017.6
20260506072005 11 219 3.2 8.0 0.00 0.00 0.00 89 1017.6
20260506072001 11 232 3.2 6.4 0.00 0.00 0.00 89 1017.6
20260506071005 11 215 3.2 6.4 0.00 0.00 0.00 89 1017.5
20260506071001 11 215 3.2 8.0 0.00 0.00 0.00 89 1017.6
20260506062459 11 248 1.6 4.8 0.00 0.00 0.00 88 1017.4
20260506062000 11 228 1.6 4.8 0.00 0.00 0.00 88 1017.4
20260506061459 11 243 1.6 4.8 0.00 0.00 0.00 88 1017.3
20260506060959 11 235 1.6 4.8 0.00 0.00 0.00 87 1017.3
20260506060501 11 232 1.6 12.9 0.00 0.00 0.00 87 1017.3
20260506050954 12 259 3.2 9.7 0.00 0.00 0.00 85 1017.1
20260506050455 12 223 3.2 9.7 0.00 0.00 0.00 85 1017.1
20260506044955 12 234 1.6 8.0 0.00 0.00 0.00 85 1017.0
20260506044454 12 236 3.2 11.3 0.00 0.00 0.00 85 1017.0
20260506043953 12 249 3.2 12.9 0.00 0.00 0.00 85 1016.9
20260506043453 12 234 3.2 12.9 0.00 0.00 0.00 85 1016.9
20260506042954 12 270 3.2 12.9 0.00 0.00 0.00 85 1016.8
20260506042451 12 266 3.2 11.3 0.00 0.00 0.00 85 1016.7
20260506041951 12 242 3.2 11.3 0.00 0.00 0.00 85 1016.6
20260506041451 12 284 1.6 11.3 0.00 0.00 0.00 85 1016.6
20260506040952 12 242 3.2 11.3 0.00 0.00 0.00 84 1016.4
20260506040450 12 255 1.6 11.3 0.00 0.00 0.00 84 1016.3
20260506035950 12 247 1.6 6.4 0.00 0.00 0.00 84 1016.3
20260506035451 12 223 3.2 14.5 0.00 0.00 0.00 83 1016.1
20260506035447 12 254 3.2 11.3 0.00 0.00 0.00 83 1016.2
20260506034447 12 273 3.2 14.5 0.00 0.00 0.00 83 1016.0
20260506033948 12 254 3.2 8.0 0.00 0.00 0.00 82 1015.9
20260506033446 12 272 3.2 14.5 0.00 0.00 0.00 82 1015.8
20260506033102 13 234 3.2 11.3 0.00 0.00 0.00 80 1015.6
20260506032952 13 257 3.2 9.7 0.00 0.00 0.00 80 1015.7
20260506032946 13 260 3.2 14.5 0.00 0.00 0.00 81 1015.7
20260506031447 13 261 4.8 11.3 0.00 0.00 0.00 79 1015.6
20260506030947 13 209 4.8 11.3 0.00 0.00 0.00 78 1015.6
20260506030447 14 266 3.2 9.7 0.00 0.00 0.00 78 1015.5
20260506025946 14 252 1.6 9.7 0.00 0.00 0.00 77 1015.4
20260506025447 14 259 1.6 8.0 0.00 0.00 0.00 77 1015.3
20260506024947 15 258 3.2 9.7 0.00 0.00 0.00 76 1015.3
20260506024447 15 263 3.2 11.3 0.00 0.00 0.00 75 1015.3
20260506023947 15 238 3.2 11.3 0.00 0.00 0.00 74 1015.2
20260506023447 16 234 3.2 14.5 0.00 0.00 0.00 73 1015.2
20260506022946 16 242 3.2 14.5 0.00 0.00 0.00 73 1015.1
20260506022451 16 249 3.2 12.9 0.00 0.00 0.00 71 1015.0
20260506022447 16 281 3.2 9.7 0.00 0.00 0.00 72 1015.0
20260506021452 17 237 3.2 11.3 0.00 0.00 0.00 70 1015.0
20260506021447 16 229 3.2 12.9 0.00 0.00 0.00 71 1015.0
20260506020452 17 264 3.2 11.3 0.00 0.00 0.00 69 1015.0
20260506020446 17 261 3.2 11.3 0.00 0.00 0.00 69 1015.0
20260506020100 18 271 3.2 11.3 0.00 0.00 0.00 67 1015.0
20260506014948 18 226 3.2 11.3 0.00 0.00 0.00 67 1014.9
20260506014446 18 244 3.2 11.3 0.00 0.00 0.00 68 1014.9
20260506013952 18 253 3.2 9.7 0.00 0.00 0.00 65 1014.9
20260506013947 18 199 3.2 11.3 0.00 0.00 0.00 66 1014.8
20260506012944 19 274 3.2 9.7 0.00 0.00 0.00 65 1014.9
20260506012450 20 215 4.8 14.5 0.00 0.00 0.00 63 1014.8
20260506012446 19 260 4.8 14.5 0.00 0.00 0.00 66 1014.8
20260506011445 20 225 3.2 9.7 0.00 0.00 0.00 65 1014.8
20260506010944 20 289 3.2 9.7 0.00 0.00 0.00 65 1014.7
20260506010445 20 306 3.2 9.7 0.00 0.00 0.00 66 1014.8
20260506005945 20 278 1.6 9.7 0.00 0.00 0.00 64 1014.7
20260506005449 20 12 1.6 6.4 0.00 0.00 0.00 68 1014.7
20260506005444 20 273 1.6 4.8 0.00 0.00 0.00 64 1014.7
20260506005102 20 167 1.6 4.8 0.00 0.00 0.00 69 1014.7
20260506005058 20 167 1.6 6.4 0.00 0.00 0.00 68 1014.7
20260506003444 19 21 1.6 3.2 0.00 0.00 0.00 71 1014.7
20260506002943 18 5 0.0 4.8 0.00 0.00 0.00 71 1014.7
20260506002442 18 5 0.0 4.8 0.00 0.00 0.00 71 1014.7
20260506001942 18 15 0.0 3.2 0.00 0.00 0.00 68 1014.7
20260506001444 18 5 0.0 3.2 0.00 0.00 0.00 68 1014.7
20260506000947 19 67 3.2 12.9 0.00 0.00 0.00 73 1014.8
20260506000942 19 9 1.6 6.4 0.00 0.00 0.00 69 1014.7
20260506000556 18 5 1.6 12.9 0.00 0.00 0.00 71 1014.8
20260505235444 18 276 1.6 4.8 0.00 0.00 0.00 70 1014.8
20260505234940 18 163 1.6 8.0 0.00 0.00 0.00 69 1014.8
20260505234440 18 178 3.2 8.0 0.00 0.00 0.00 68 1014.8
20260505233939 19 84 1.6 6.4 0.00 0.00 0.00 66 1014.9
20260505233438 19 96 3.2 6.4 0.00 0.00 0.00 68 1014.9
20260505232942 20 180 3.2 8.0 0.00 0.00 0.00 67 1015.0
20260505232938 20 128 3.2 8.0 0.00 0.00 0.00 68 1015.0
20260505231937 20 169 3.2 8.0 0.00 0.00 0.00 66 1015.0
20260505231434 20 350 3.2 11.3 0.00 0.00 0.00 68 1015.1
20260505230939 20 64 3.2 6.4 0.00 0.00 0.00 68 1015.1
20260505230934 20 43 3.2 11.3 0.00 0.00 0.00 67 1015.1
20260505225934 20 17 1.6 6.4 0.00 0.00 0.00 66 1015.0
20260505225435 20 153 1.6 9.7 0.00 0.00 0.00 63 1015.1
20260505224932 20 128 1.6 9.7 0.00 0.00 0.00 68 1015.1
20260505224433 20 211 1.6 6.4 0.00 0.00 0.00 62 1015.2
20260505223932 20 169 1.6 6.4 0.00 0.00 0.00 63 1015.2
20260505223433 20 208 1.6 4.8 0.00 0.00 0.00 64 1015.3
20260505222933 19 221 1.6 8.0 0.00 0.00 0.00 63 1015.3
20260505222431 19 287 1.6 8.0 0.00 0.00 0.00 65 1015.4
20260505221932 18 217 3.2 8.0 0.00 0.00 0.00 65 1015.4
20260505221432 18 186 3.2 9.7 0.00 0.00 0.00 67 1015.4
20260505220932 18 225 3.2 9.7 0.00 0.00 0.00 67 1015.4
20260505220431 18 212 3.2 8.0 0.00 0.00 0.00 65 1015.5
20260505215930 18 245 3.2 6.4 0.00 0.00 0.00 66 1015.6
20260505215432 18 247 1.6 6.4 0.00 0.00 0.00 69 1015.6
20260505214931 18 315 1.6 4.8 0.00 0.00 0.00 68 1015.7
20260505214435 17 223 1.6 4.8 0.00 0.00 0.00 68 1015.7
20260505214430 17 161 1.6 4.8 0.00 0.00 0.00 68 1015.7
20260505213428 17 224 3.2 11.3 0.00 0.00 0.00 72 1015.8
20260505212932 17 337 3.2 8.0 0.00 0.00 0.00 69 1015.9
20260505212928 17 308 3.2 11.3 0.00 0.00 0.00 68 1015.9
20260505211929 17 16 3.2 6.4 0.00 0.00 0.00 72 1015.9
20260505211427 17 341 1.6 6.4 0.00 0.00 0.00 69 1016.0
20260505210929 17 41 1.6 6.4 0.00 0.00 0.00 72 1016.0
20260505210428 17 5 1.6 6.4 0.00 0.00 0.00 70 1016.0
20260505205927 17 5 3.2 8.0 0.00 0.00 0.00 68 1016.1
20260505205435 17 5 1.6 4.8 0.00 0.00 0.00 69 1016.2
20260505205428 17 327 3.2 8.0 0.00 0.00 0.00 68 1016.1
20260505204928 17 5 1.6 6.4 0.00 0.00 0.00 72 1016.1
20260505203929 17 148 1.6 4.8 0.00 0.00 0.00 67 1016.2
20260505203427 17 5 1.6 6.4 0.00 0.00 0.00 74 1016.2
20260505202931 16 278 1.6 6.4 0.00 0.00 0.00 73 1016.3
20260505202927 16 257 1.6 6.4 0.00 0.00 0.00 74 1016.2
20260505201926 16 22 3.2 11.3 0.00 0.00 0.00 70 1016.3
20260505201430 16 269 1.6 6.4 0.00 0.00 0.00 75 1016.6
20260505201426 16 343 3.2 11.3 0.00 0.00 0.00 72 1016.4
20260505200426 16 275 3.2 6.4 0.00 0.00 0.00 74 1016.6
20260505195926 16 298 3.2 8.0 0.00 0.00 0.00 73 1016.6
20260505195426 16 310 1.6 8.0 0.00 0.00 0.00 72 1016.6
20260505194926 15 281 1.6 4.8 0.00 0.00 0.00 72 1016.6
20260505194426 15 276 1.6 6.4 0.00 0.00 0.00 73 1016.7
20260505193921 15 299 3.2 8.0 0.00 0.00 0.00 74 1016.7
20260505193422 15 305 3.2 8.0 0.00 0.00 0.00 72 1016.7
20260505192922 15 253 1.6 4.8 0.00 0.00 0.00 72 1016.6
20260505192419 15 333 1.6 4.8 0.00 0.00 0.00 74 1016.7
20260505191921 15 281 1.6 6.4 0.00 0.00 0.00 74 1016.7
20260505191421 15 298 1.6 6.4 0.00 0.00 0.00 72 1016.8
20260505190920 15 248 1.6 4.8 0.00 0.00 0.00 72 1016.8
20260505190421 15 272 0.0 4.8 0.00 0.00 0.00 74 1016.8
20260505185919 15 298 0.0 0.0 0.00 0.00 0.00 74 1016.7
20260505185418 15 298 0.0 1.6 0.00 0.00 0.00 75 1016.7
20260505184917 15 297 1.6 4.8 0.00 0.00 0.00 73 1016.7
20260505184417 15 297 3.2 6.4 0.00 0.00 0.00 76 1016.7
20260505183923 15 9 1.6 3.2 0.00 0.00 0.00 77 1016.6
20260505183918 15 309 3.2 6.4 0.00 0.00 0.00 74 1016.7
20260505182919 15 277 1.6 9.7 0.00 0.00 0.00 78 1016.6
20260505182419 14 298 1.6 9.7 0.00 0.00 0.00 74 1016.6
20260505181916 14 196 0.0 6.4 0.00 0.00 0.00 77 1016.4
20260505181415 14 275 1.6 3.2 0.00 0.00 0.00 75 1016.4
20260505180915 14 280 0.0 3.2 0.00 0.00 0.00 75 1016.4
20260505180414 14 285 1.6 4.8 0.00 0.00 0.00 76 1016.4
20260505175919 14 270 1.6 6.4 0.00 0.00 0.00 78 1016.4
20260505175915 14 288 1.6 4.8 0.00 0.00 0.00 76 1016.4
20260505174914 13 350 1.6 6.4 0.00 0.00 0.00 76 1016.4
20260505174414 13 315 1.6 3.2 0.00 0.00 0.00 78 1016.3
20260505173914 13 296 1.6 4.8 0.00 0.00 0.00 77 1016.3
20260505173414 13 296 3.2 4.8 0.00 0.00 0.00 77 1016.4
20260505172914 13 294 1.6 4.8 0.00 0.00 0.00 80 1016.3
20260505172415 13 231 1.6 4.8 0.00 0.00 0.00 79 1016.3
20260505171915 13 306 1.6 4.8 0.00 0.00 0.00 78 1016.2
20260505171413 13 355 3.2 6.4 0.00 0.00 0.00 78 1016.3
20260505170913 13 0 1.6 6.4 0.00 0.00 0.00 80 1016.2
20260505170413 13 13 1.6 6.4 0.00 0.00 0.00 79 1016.3
20260505165914 13 355 1.6 4.8 0.00 0.00 0.00 78 1016.2
20260505165414 13 12 3.2 4.8 0.00 0.00 0.00 79 1016.1
20260505164915 13 0 3.2 6.4 0.00 0.00 0.00 79 1016.1
20260505164413 13 294 3.2 6.4 0.00 0.00 0.00 80 1016.1
20260505163914 13 350 3.2 6.4 0.00 0.00 0.00 81 1016.1
20260505163413 13 325 3.2 6.4 0.00 0.00 0.00 79 1016.1
20260505162913 13 302 1.6 6.4 0.00 0.00 0.00 79 1016.0
20260505162415 13 301 1.6 6.4 0.00 0.00 0.00 79 1016.1
20260505161913 13 332 1.6 4.8 0.00 0.00 0.00 80 1016.0
20260505161415 13 315 1.6 4.8 0.00 0.00 0.00 81 1016.0
20260505160913 13 292 1.6 4.8 0.00 0.00 0.00 81 1016.0
20260505160414 13 309 3.2 6.4 0.00 0.00 0.00 81 1016.0
20260505152913 12 236 0.0 3.2 0.00 0.00 0.00 83 1016.0
20260505152409 12 197 0.0 3.2 0.00 0.00 0.00 82 1016.0
20260505151911 12 197 0.0 3.2 0.00 0.00 0.00 82 1016.0
20260505151409 12 196 0.0 3.2 0.00 0.00 0.00 83 1016.0
20260505150909 12 196 0.0 3.2 0.00 0.00 0.00 82 1015.9
20260505150410 12 196 0.0 3.2 0.00 0.00 0.00 83 1015.9
20260505140359 11 196 1.6 4.8 0.00 0.00 0.00 85 1015.5
20260505124900 11 255 0.0 3.2 0.00 0.00 0.00 85 1015.0
20260505124856 11 255 0.0 0.0 0.00 0.00 0.00 85 1015.0
20260505124509 11 255 0.0 3.2 0.00 0.00 0.00 85 1014.9
20260505123355 11 255 0.0 3.2 0.00 0.00 0.00 85 1014.9
20260505122856 11 255 0.0 3.2 0.00 0.00 0.00 85 1014.9
20260505122354 11 255 0.0 3.2 0.00 0.00 0.00 85 1014.8
20260505121856 11 255 0.0 3.2 0.00 0.00 0.00 85 1014.7
20260505121354 11 255 0.0 3.2 0.00 0.00 0.00 85 1014.8
20260505120853 11 255 0.0 3.2 0.00 0.00 0.00 85 1014.8
20260505120353 11 255 1.6 3.2 0.00 0.00 0.00 85 1014.8
20260505115853 11 257 0.0 3.2 0.00 0.00 0.00 85 1014.8
20260505115358 11 258 0.0 1.6 0.00 0.00 0.00 85 1014.8
20260505115352 11 258 0.0 1.6 0.00 0.00 0.00 85 1014.8
20260505115004 11 258 0.0 1.6 0.00 0.00 0.00 85 1014.8
20260505113851 11 259 0.0 3.2 0.00 0.00 0.00 85 1014.8
20260505113352 11 259 0.0 3.2 0.00 0.00 0.00 85 1014.8
20260505112852 11 259 1.6 4.8 0.00 0.00 0.00 85 1014.8
20260505112351 11 259 1.6 4.8 0.00 0.00 0.00 84 1014.7
20260505111851 11 234 1.6 8.0 0.00 0.00 0.00 85 1014.7
20260505111353 11 233 3.2 9.7 0.00 0.00 0.00 84 1014.7
20260505110850 11 266 3.2 9.7 0.00 0.00 0.00 84 1014.6
20260505110350 11 266 3.2 12.9 0.00 0.00 0.00 85 1014.6
20260505101845 11 261 1.6 8.0 0.00 0.00 0.00 85 1014.3
20260505101345 11 250 1.6 8.0 0.00 0.00 0.00 85 1014.3
20260505100842 11 257 3.2 11.3 0.00 0.00 0.00 85 1014.3
20260505100344 11 291 1.6 11.3 0.00 0.00 0.00 85 1014.3
20260505095843 11 254 1.6 6.4 0.00 0.00 0.00 85 1014.3
20260505095342 11 252 1.6 9.7 0.00 0.00 0.00 85 1014.3
20260505094843 11 250 1.6 9.7 0.00 0.00 0.00 85 1014.2
20260505094348 11 223 3.2 14.5 0.00 0.00 0.00 85 1014.2
20260505094343 11 250 3.2 11.3 0.00 0.00 0.00 85 1014.2
20260505093843 11 211 3.2 11.3 0.00 0.00 0.00 84 1014.2
20260505093446 11 257 3.2 14.5 0.00 0.00 0.00 85 1014.2
20260505092340 11 252 4.8 12.9 0.00 0.00 0.00 85 1014.2
20260505091844 11 268 3.2 9.7 0.00 0.00 0.00 86 1014.1
20260505091840 11 259 4.8 12.9 0.00 0.00 0.00 85 1014.2
20260505090836 11 247 3.2 9.7 0.00 0.00 0.00 86 1014.1
20260505090340 11 219 3.2 11.3 0.00 0.00 0.00 86 1014.1
20260505090336 11 257 3.2 9.7 0.00 0.00 0.00 86 1014.1
20260505085337 11 252 3.2 11.3 0.00 0.00 0.00 86 1014.0
20260505084837 11 291 1.6 6.4 0.00 0.00 0.00 87 1014.0
20260505084337 11 248 1.6 6.4 0.00 0.00 0.00 86 1014.0
20260505083837 11 254 1.6 9.7 0.00 0.00 0.00 86 1014.0
20260505083337 11 265 3.2 9.7 0.00 0.00 0.00 86 1013.9
20260505082837 11 260 3.2 9.7 0.00 0.00 0.00 86 1013.8